Погода в Арке

Погода в Арке : погода сейчас, прогноз погоды и архив. Всё, что Вы хотите узнать о погоде в Арке!

Хотите узнать прогноз погоды в Арке? Тогда Вам сюда: Погода в Арке

Поиск расширенной информации на нашем сайте:

Другие новости

Новости СМИ2

Главная страница сайта

Новости сайта

02.10.2013

Напоминаем, что на нашем новом сайте вы можете получить высокодетализированные прогнозы погоды по пунктам России, СНГ и мира (включающие важные для авиации метеовеличины, такие как направление и скорость ветра, видимость, явления погоды, количество и форма облачности, нижняя и верхняя граница облачности), а также ознакомиться с разнообразными материалами по авиационной метеорологии и подборкой полезных ссылок на эту тему.

Сайт Метеоцентр.Азия посвящён разработке технологий оптимизации авиаметеорологического обслуживания, включая проектирование и перспективное создание нескольких автоматизированных авиаметеорологических систем:
- система выпуска высокодетальных прогностических карт явлений погоды для нижнего воздушного пространства по России и ближнему зарубежью;
- система верификации прогнозов TAF (выпускаемых синоптиками официальных АМСГ РФ и ближнего зарубежья) и AUTOTAF (выпускаемых сайтом Метеоцентр.Азия) - выявление ошибок, онлайн-сопоставление с фактической погодой METAR, автоматическое внесение коррективов в прогнозы при резком отклонении фактической погоды от прогноза, подсчёт оправдываемости прогнозов по элементам и в целом;
- система обработки, анализа и отображения авиаметеорологической информации для применения провайдерами метеорологической информации.


Погода в Арке - сегодня

Время (UTC), дата Ветер
(°,м/с) 
Видим.   Явления Облачность Т
(°С)
Тd
(°С)
f(%) Тe
(°С)
Pmin
(гПа)
dP
(гПа)
Po
(мм)
O2
(г/м3)
Тmin Tmax R s Состояние
почвы
15 13.01.17 320 (СЗ) 20000 м    9/0 средняя, верхняя 
[Ac trans|Ci fib]
-10.7 -18.6 52 -14  1030.6  -0.5  753  317           
18 13.01.17 310 (СЗ) 20000 м    9/0 средняя, верхняя 
[Ac trans|Ci fib]
-14.4 -20.4 60 -17  1030.6  -0.3  753  322           
21 13.01.17 280 (З) 20000 м    9/0 верхняя 
[Ci fib]
-17.7 -21.7 71 -18  1030.8  -0.2  753  326  -18.7      17  равномерный
сухой снег
100% 
00 14.01.17 270 (З) 20000 м    9/0 средняя, верхняя 
[Ac lent|Ci fib]
-19.9 -22.1 83 -23  1031.7  0.7  753  329  -20.8         
03 14.01.17 270 (З) 20000 м    9/0 верхняя 
[Ci fib]
-14.4 -20.1 62 -14  1030.6  -0.5  753  322           
06 14.01.17 280 (З) 20000 м    9/0 средняя, верхняя 
[Ac lent|Ci fib]
-16.1 -20.2 71 -16  1031.1  0.3  753  324           
09 14.01.17 300 (СЗ) 20000 м    9/0 средняя, верхняя 
[Ac trans|Ci fib]
-18.7 -21.4 79 -19  1031.5  0.2  753  327    -13.1       
12 14.01.17 280 (З) 20000 м    8/0 средняя, верхняя 
[Ac trans|Ci fib]
-21.7 -24 82 -25  1031.6  -0.2  753  331           
15 14.01.17 330 (СЗ) 20000 м    3/0 верхняя 
[Ci fib]
-22.6 -24.9 81 -23  1031.2  -0.5  753  332           
18 14.01.17 тихо ()   20000 м    ясно 
-24.8 -27.2 80 -25  1032.1  0.6  753  336           
21 14.01.17 330 (СЗ) 20000 м    ясно 
-24.7 -27 81 -25  1031.5  -0.5  753  335  -25.2      17  равномерный
сухой снег
100% 
00 15.01.17 010 (С) 20000 м    ясно 
-25.2 -27.7 80 -26  1031.5  -0.1  753  336           
03 15.01.17 270 (З) 20000 м    ясно 
-14 -20.6 57 -18  1029  -1.2  752  321           
06 15.01.17 280 (З) 20000 м    ясно 
-16.2 -21.8 62 -19  1028.6  -0.6  751  323           
09 15.01.17 290 (З) 20000 м    ясно 
-21 -23.9 77 -24  1029.4  0.3  752  330    -12.8       
12 15.01.17 280 (З) 20000 м    ясно 
-18.1 -22.7 67 -21  1029.1  0.3  752  326           
15 15.01.17 270 (З) 20000 м    ясно 
-17.6 -22.7 64 -22  1028.5  -0.5  751  325           
18 15.01.17 300 (СЗ) 20000 м    ясно 
-18.9 -23.8 65 -22  1029.1  0.4  752  327           
21 15.01.17 300 (СЗ) 20000 м    ясно 
-19.7 -24.3 67 -22  1029.3  0.1  752  328  -23.9      17  равномерный
сухой снег
100% 
00 16.01.17 320 (СЗ) 20000 м    ясно 
-20.1 -25.1 64 -23  1029.9  0.5  752  329           
03 16.01.17 280 (З) 20000 м    ясно 
-16.7 -23.3 57 -21  1029.1  -0.4  752  324           
06 16.01.17 280 (З) 20000 м    ясно 
-16.7 -23.2 57 -21  1029  -0.1  752  324           
09 16.01.17 290 (З) 20000 м    ясно 
-19.1 -24.4 63 -22  1030.3  0.9  752  328    -15.7       
12 16.01.17 270 (З) 20000 м    ясно 
-20.1 -24.8 66 -24  1030.8  0.4  753  329           
15 16.01.17 270 (З) 20000 м    ясно 
-20.9 -25.5 66 -25  1030.5  -0.3  752  330           
Время (UTC), дата Ветер
(°,м/с) 
Видим.   Явления Облачность Т
(°С)
Тd
(°С)
f(%) Тe
(°С)
Pmin
(гПа)
dP
(гПа)
Po
(мм)
O2
(г/м3)
Тmin Tmax R s Состояние
почвы

Для получения пояснительной информации подведите курсор к названию столбца.

ПОГОДА в Арке - архив

Всё, что Вы хотите узнать о погоде в Арке - удобно и подробно!

Выберите нужную дату (начиная с 1 января 2015* года) и нажмите кнопку "Найти".
Будут отображены архивные сводки погоды по пункту Арка, начиная с указанной даты.


Отображать данные в формате CSV (для использования в таблицах Excel)


Внимание! Наш архив погоды предназначен исключительно для личного некоммерческого использования в познавательных целях. Если Вам необходимы официальные справки о состоянии погоды (для производственных, юридических, коммерческих и т.п. целей), обращайтесь в органы Росгидромета.

*Примечание: данная дата относится к архиву по метеостанциям СССР (Россия, СНГ, Балтия).
Архив по метеостанциям Зарубежной Европы и Азии (кроме Китая) хранится 10 дней, по другим регионам земного шара (Китай, Африка, Америка, Австралия, Океания) - 1 день.

Арка - район местоположения метеостанции


Название, широта, долгота, высота метеостанции:
Арка 60.1°ш. 142.3°д. 198 м над ур. моря [Российская Федерация]

Дополнительная информация

В oтличие oт бoльшинства пoгoдных сайтoв мы публикуем пoдрoбную метеoинфoрмацию в детальнoм прoфессиoнальнoм фoрмате.

Характеристики температуры и влажнoсти вoздуха измеряются на высoте 2 м в тени вдали oт зданий и деревьев.
Скoрoсть ветра измеряется на высoте 10 м (на урoвне рoста челoвека скoрoсть ветра ниже в 1.5-2 раза). Если метеoстанция нахoдится в гoрoде или в лесу, тo скoрoсть ветра занижена на 2-4 м/с пo сравнению с oткрытым местoм. Скoрoсть ветра над акватoриями крупных рек и oзёр, а также на вершинах хoлмoв на 2-5 м/с выше, чем в oбычных услoвиях.
Атмoсфернoе давление в разных тoчках местнoсти мoжет значительнo oтличаться oт давления на метеoстанции, в зависимoсти oт услoвий рельефа (при пoдъёме на 10 м давление пoнижается примернo на 1 мм рт.ст.).